Flag for Canada Weather past 2 weeks in Toronto, Ontario, Canada

Now
30 °F

Passing clouds.


Feels Like: 21 °F
Forecast: 29 / 42 °F
Wind: 10 mph from Northwest

Location: Toronto Pearson International Airport

Current Time: Apr 1, 2015 at 1:18:01 AM

Latest Report: Apr 1, 2015 at 12:00 AM


Visibility: 15 mi

Pressure: 29.99 "Hg

Humidity: 59%

Dew point: 18 °F

Location of TorontoLocation

Historic Weather in Toronto — Graph

°F

Toronto temperature yesterday

Maximum temperature yesterday: 45 °F (at 5:00 PM)
Minimum temperature yesterday: 27 °F (at 2:00 AM)
Average temperature yesterday: 34 °F

Past Weeks' High & Low Weather Summary

 TemperatureHumidityPressure
High46 °F (Mar 20, 4:00 PM)100% (Mar 25, 6:00 PM)30.43 "Hg (Mar 25, 6:00 PM)
Low12 °F (Mar 23, 7:00 AM)26% (Mar 28, 4:00 PM)29.57 "Hg (Mar 30, 4:00 AM)
Average30 °F60%30.08 "Hg
* Reported Midnight between Mar 16 and Mar 17 — Midnight between Mar 31 and Apr 1, Toronto, Weather by CustomWeather, © 2015

Note: Actual official high and low records may vary slightly from our data, if they occured in-between our weather recording intervals... More about our weather records

Advertising

Toronto weather history for previous 24 hours

 ConditionsComfort  
Time TempWeatherWind HumidityBarometerVisibility
12:00 AM
Wed, Apr 1
30 °FPassing clouds.10 mph59%29.99 "Hg15 mi
11:00 PM
Tue, Mar 31
30 °FPassing clouds.9 mph59%29.98 "Hg15 mi
10:00 PM30 °FPartly cloudy.16 mph64%29.97 "Hg15 mi
9:00 PM32 °FPassing clouds.15 mph60%29.94 "Hg15 mi
8:00 PM34 °FPartly sunny.13 mph56%29.92 "Hg15 mi
7:00 PM39 °FPartly sunny.14 mph45%29.88 "Hg15 mi
6:00 PM43 °FScattered clouds.8 mph49%29.86 "Hg15 mi
5:00 PM45 °FPartly sunny.9 mph39%29.84 "Hg15 mi
4:00 PM41 °FBroken clouds.7 mph57%29.83 "Hg15 mi
3:00 PM41 °FBroken clouds.7 mph57%29.82 "Hg15 mi
2:00 PM41 °FPartly sunny.7 mph57%29.81 "Hg15 mi
1:00 PM41 °FPartly sunny.5 mph53%29.81 "Hg15 mi
12:00 PM39 °FPartly sunny.7 mph61%29.82 "Hg15 mi
11:00 AM36 °FPartly sunny.3 mph65%29.83 "Hg15 mi
10:00 AM34 °FPartly sunny.5 mph75%29.85 "Hg15 mi
9:00 AM32 °FPartly sunny.6 mph80%29.86 "Hg15 mi
8:00 AM30 °FMostly cloudy.3 mph80%29.87 "Hg15 mi
7:00 AM28 °FPassing clouds.3 mph86%29.86 "Hg15 mi
6:00 AM28 °FPassing clouds.3 mph80%29.86 "Hg15 mi
5:00 AM27 °FPassing clouds.6 mph86%29.88 "Hg15 mi
4:00 AM27 °FPassing clouds.5 mph86%29.88 "Hg15 mi
3:00 AM27 °FClear.6 mph86%29.90 "Hg15 mi
2:00 AM27 °FClear.10 mph86%29.92 "Hg15 mi
1:00 AM28 °FClear.10 mph80%29.92 "Hg15 mi
Weather by CustomWeather, © 2015

See weather overviewHow to use our weather pages